Location: Lalevade
(44.6483°N, 4.3242°E)
Time: 08:11:04
(UTC+00:00)

Daily predictions for brighter satellites

Satellite Brightness Start Highest point End
(mag) Time Altitude Azimuth Time Altitude Azimuth Time Altitude Azimuth
Nadezhda 4 Rocket 4.1 16:26:40 10° S 16:33:00 83° E 16:39:19 10° N
USA 215 3.5 16:26:57 10° NE 16:33:25 61° SE 16:39:52 10° SW
Cosmos 614 Rocket 4.2 16:33:08 10° S 16:38:03 52° ESE 16:42:59 10° NNE
Cosmos 405 Rocket 4.5 16:37:27 10° NE 16:38:50 12° ENE 16:40:14 10° E
STARLINK-29 4.2 16:36:19 10° W 16:39:37 35° NNW 16:42:54 10° NE
Okean 1 4.2 16:39:07 10° SSE 16:42:32 28° E 16:45:57 10° NNE
Cosmos 1867 3.7 16:38:05 10° NNW 16:43:30 56° NE 16:48:50 10° SE
STARLINK-67 4.0 16:41:17 10° NW 16:43:35 23° NNE 16:45:51 10° ENE
Cosmos 1190 Rocket 4.2 16:41:44 10° S 16:46:44 52° ESE 16:51:47 10° NNE
Cosmos 1441 Rocket 3.1 16:44:57 10° N 16:48:42 60° ENE 16:52:23 10° SSE
Aureole 1 Rocket 2.8 16:47:16 10° SSW 16:50:15 58° WNW 16:53:44 10° NNE
CZ-4B R/B 3.7 16:47:26 10° NNW 16:50:17 24° WNW 16:53:04 10° WSW
H-2A R/B 2.8 16:48:02 10° SSE 16:51:35 49° ENE 16:55:10 10° N
Cosmos 1782 Rocket 3.7 16:48:17 10° N 16:52:32 50° ENE 16:56:44 10° SSE
YAOGAN 6 4.0 16:50:25 10° ESE 16:52:50 17° ENE 16:55:17 10° NNE
Cosmos 2026 Rocket 4.1 16:47:56 10° SSE 16:53:47 54° E 16:59:41 10° NNE
IRS-1C Rocket 4.0 16:51:15 10° SSE 16:56:30 75° ENE 17:01:46 10° N
Cosmos 2297 3.8 16:50:52 10° NNW 16:56:35 87° WSW 17:02:14 10° SSE
Cosmos 1666 2.8 16:53:00 10° NNW 16:56:45 76° W 17:00:27 10° S
Cosmos 1174 4.4 16:52:51 10° SW 16:57:43 64° NW 17:01:38 10° NNE
Cosmos 1703 Rocket 3.6 16:58:23 10° S 17:02:52 86° E 17:07:22 10° N
AQUARIUS 4.1 17:00:01 10° SSE 17:04:28 73° ENE 17:08:59 10° N
CZ-4C R/B 3.1 17:03:08 10° SSE 17:07:11 26° ESE 17:10:26 15° ENE
USA 267 3.3 17:00:59 10° ESE 17:07:23 60° NNE 17:13:48 10° NW
NOSS 3-1 (C) 4.4 17:01:16 10° NNW 17:08:13 43° NE 17:16:08 10° ESE
STARLINK-48 3.8 17:04:36 10° SW 17:08:24 53° SE 17:11:07 18° ENE
Cosmos 1140 Rocket 3.5 17:03:58 10° S 17:09:01 65° ESE 17:14:08 10° NNE
Okean 2 Rocket 3.6 17:08:54 10° N 17:13:07 38° ENE 17:17:19 10° SE
CZ-4 R/B 2.3 17:10:47 10° ESE 17:13:54 24° ENE 17:17:01 10° NNE
Cosmos 1023 Rocket 4.4 17:11:56 10° SSW 17:17:00 79° ESE 17:22:10 10° NNE
Envisat 3.0 17:15:09 10° SSE 17:20:08 61° ENE 17:25:09 10° N
USA 229 DEB 4.1 17:13:21 10° NNW 17:20:18 48° NE 17:27:31 10° ESE
Cosmos 2221 Rocket 3.8 17:16:07 10° SSE 17:20:22 46° E 17:24:37 10° NNE
USA 229 4.1 17:13:27 10° NNW 17:20:23 47° NE 17:27:35 10° ESE
Meteor 2-9 Rocket 4.4 17:15:32 10° N 17:21:14 51° ENE 17:26:48 10° SSE
Cosmos 1975 2.9 17:17:26 10° N 17:21:22 52° ENE 17:25:18 10° SSE
Sich 1 Rocket 3.4 17:17:20 10° N 17:21:45 79° E 17:26:08 10° SSE
Okean 1-7 3.4 17:19:09 10° SSW 17:23:28 68° W 17:27:53 10° N
NOSS 3-1 (A) 4.5 17:18:52 10° NNW 17:25:41 39° NE 17:32:19 14° ESE
BREEZE-M DEB (TANK) 2.5 17:21:16 10° WNW 17:25:44 56° SW 17:27:50 13° SE
Cosmos 1943 3.9 17:21:02 10° SSE 17:25:59 32° ESE 17:28:51 21° ENE
STARLINK-43 3.8 17:23:45 10° WSW 17:27:23 51° NNW 17:29:23 24° NE
Cosmos 407 Rocket 4.0 17:23:56 10° SSW 17:29:05 60° WNW 17:34:20 10° NNE
Okean O Rocket 4.5 17:27:45 10° SW 17:30:56 20° W 17:34:09 10° NW
STARLINK-26 4.2 17:29:17 10° SSW 17:32:26 31° SE 17:33:19 27° ESE
Lacrosse 5 2.1 17:28:48 10° SSW 17:33:46 55° SE 17:36:27 26° ENE
NOSS 7 (H) 4.3 17:31:03 10° SW 17:34:20 72° NW 17:35:39 30° NNE
Meteor 1-12 Rocket 4.5 17:31:03 10° N 17:36:41 48° ENE 17:42:11 10° SSE
Cosmos 1241 Rocket 4.4 17:30:34 10° SSW 17:36:56 84° ESE 17:41:56 17° NE
Cosmos 2369 Rocket 2.1 17:32:26 10° NNW 17:38:02 62° ENE 17:43:39 10° SE
Cosmos 1300 Rocket 3.6 17:36:06 10° N 17:40:18 51° ENE 17:44:30 10° SSE
Cosmos 1743 3.4 17:36:41 10° NNW 17:40:30 55° W 17:44:18 10° S
SMAP 4.4 17:38:09 10° S 17:42:34 43° W 17:47:01 10° NNW
Lacrosse 4 Rocket 3.6 17:40:29 10° N 17:41:13 12° NNE 17:41:13 12° NNE
Okean 3 3.3 17:40:18 10° S 17:44:25 65° E 17:47:16 19° NNE
COSMO-SKYMED 1 2.5 17:41:45 17° NNE 17:44:59 63° E 17:49:17 10° S
STARLINK-54 4.4 17:41:52 10° SSW 17:45:29 32° SE 17:46:05 30° ESE
YAOGAN 1 2.8 17:41:57 10° SE 17:46:04 44° ENE 17:50:12 10° N
SL-16 R/B 3.3 17:41:34 10° SW 17:46:56 42° WNW 17:52:21 10° NNE
Abrixas rocket 2.0 17:44:37 10° WSW 17:47:37 66° NNW 17:47:53 61° NNE
Meteor 1-13 Rocket 4.5 17:43:07 10° SSE 17:48:19 42° E 17:51:05 25° NE
IRIDIUM 106 4.5 17:43:23 10° SSE 17:48:22 47° E 17:53:22 10° NNE
STARLINK-34 4.3 17:45:07 10° SSW 17:48:45 34° SE 17:49:16 33° ESE
EP 2 4.5 17:47:09 10° SW 17:50:07 87° NW 17:50:29 65° NNE
STARLINK-61 3.7 17:47:21 10° SW 17:51:15 54° SE 17:52:04 45° E
STARLINK-81 4.4 17:48:15 10° SSW 17:51:53 33° SE 17:52:11 33° SE
Cosmos 1943 Rocket 2.1 17:46:57 10° NNW 17:52:37 87° WSW 17:58:11 10° SSE
STARLINK-24 4.2 17:49:58 10° SSW 17:53:42 37° SE 17:54:02 36° SE
Cosmos 2237 Rocket 4.5 17:49:56 10° W 17:53:43 18° NW 17:57:31 10° N
Cosmos 1603 3.6 17:48:38 10° SSW 17:54:19 73° ESE 17:57:51 24° NNE
STARLINK-77 4.3 17:51:30 10° SSW 17:55:10 35° SE 17:55:22 35° SE
STARLINK-25 4.2 17:53:07 10° SSW 17:56:49 36° SE 17:56:57 36° SE
STARLINK-80 3.9 17:53:15 10° WSW 17:56:59 52° NNW 17:57:49 42° NNE
STARLINK-71 4.1 17:54:51 10° SSW 17:58:38 41° SE 17:58:49 41° SE
Cosmos 1655 Rocket 3.9 17:52:32 10° S 17:58:50 83° E 18:05:07 10° N
Okean-O 3.5 17:55:38 10° S 17:59:56 50° W 18:04:16 10° NNW
STARLINK-79 4.2 17:56:21 10° SSW 18:00:06 39° SE 18:00:08 39° SE
STARLINK-78 4.1 17:58:00 10° SSW 18:01:46 40° SE 18:01:46 40° SE
STARLINK-57 4.0 17:59:41 10° SSW 18:03:28 43° SE 18:03:28 43° SE
STARLINK-49 4.1 18:01:15 10° SSW 18:04:55 42° SE 18:04:55 42° SE
Aureole 3 Rocket 2.5 18:02:54 15° NNW 18:05:20 68° W 18:08:40 10° S
STARLINK-27 4.1 18:02:51 10° SSW 18:06:30 43° SSE 18:06:30 43° SSE
FengYun 1-2 T 4.4 18:01:40 10° S 18:07:09 74° WSW 18:12:41 10° NNW
BREEZE-M R/B 2.3 18:03:22 10° WNW 18:07:44 83° WNW 18:07:44 83° WNW
STARLINK-74 4.0 18:04:30 10° SSW 18:08:05 44° SSE 18:08:05 44° SSE
Cosmos 1570 Rocket 4.4 18:03:49 10° N 18:08:05 40° NE 18:08:05 40° NE
Cosmos 1763 Rocket 3.5 18:04:18 10° NNW 18:09:16 51° ENE 18:09:31 50° ENE
CSL-04 Rocket 3.5 18:04:17 10° SSE 18:09:32 76° ENE 18:14:52 10° NNW
STARLINK-39 4.0 18:06:09 10° SSW 18:09:42 46° SSE 18:09:42 46° SSE
Lacrosse 5 rocket 3.5 18:08:08 10° NNW 18:09:54 14° N 18:09:54 14° N
Cosmos 1461 2.9 18:07:09 10° SSW 18:10:37 57° SSE 18:10:37 57° SSE
STARLINK 4.0 18:07:45 10° SW 18:11:17 47° SSE 18:11:17 47° SSE
STARLINK-42 3.9 18:09:29 10° SW 18:13:00 50° SSE 18:13:00 50° SSE
SL-4 R/B 2.0 18:10:06 10° WNW 18:13:40 63° N 18:13:40 63° N
STARLINK-21 4.0 18:11:04 10° SW 18:14:30 48° SSE 18:14:30 48° SSE
Cosmos 405 Rocket 3.4 18:11:33 10° NNW 18:15:10 51° W 18:18:48 10° S
USA 215 3.8 18:12:58 27° NE 18:16:21 51° NNW 18:22:37 10° W
STARLINK-45 3.8 18:12:50 10° SW 18:16:21 55° S 18:16:21 55° S
STARLINK-75 3.8 18:14:35 10° SW 18:18:06 58° S 18:18:06 58° S
STARLINK-76 4.0 18:15:58 10° SW 18:19:16 50° S 18:19:16 50° S
STARLINK 4.1 18:17:35 10° SW 18:20:50 50° S 18:20:50 50° S
Meteor 2-4 Rocket 3.9 18:16:13 10° SSW 18:22:04 76° W 18:27:04 14° N
STARLINK-32 4.1 18:19:14 10° SW 18:22:26 49° S 18:22:26 49° S
S3M 4.4 18:17:48 10° NNW 18:23:55 63° W 18:29:56 10° S
Cosmos 2266 Rocket 3.9 18:17:41 10° S 18:24:06 88° ESE 18:30:30 10° N
STARLINK-40 4.1 18:20:52 10° SW 18:24:01 49° SSW 18:24:01 49° SSW
Cosmos 2151 Rocket 4.1 18:20:45 10° NNW 18:25:04 57° W 18:29:22 10° S
YAOGAN 6 4.3 18:22:50 10° SSW 18:26:05 33° W 18:29:24 10° NNW
STARLINK-44 4.2 18:22:30 10° SW 18:25:37 48° SSW 18:25:37 48° SSW
STARLINK-37 4.2 18:24:16 10° SW 18:27:21 49° SSW 18:27:21 49° SSW
STARLINK-36 4.3 18:25:38 10° SW 18:28:37 47° SSW 18:28:37 47° SSW
STARLINK-41 4.4 18:27:25 10° SW 18:30:21 45° SSW 18:30:21 45° SSW
STARLINK-64 4.4 18:29:05 10° SW 18:31:56 44° SW 18:31:56 44° SW
CSL-04 Debris 4.5 18:28:44 10° S 18:34:08 67° WSW 18:39:34 10° NNW
STARLINK-35 4.5 18:30:44 10° SW 18:33:34 44° SW 18:33:34 44° SW
DMSP B5D1-3 4.3 18:37:13 85° ESE 18:37:13 85° ESE 18:42:16 10° SSW
Cosmos 2344 4.4 18:28:34 10° NW 18:38:21 80° NE 18:52:02 10° SE
Gbstr 26 Del rocket 3.8 18:32:53 10° WSW 18:40:00 81° NNW 18:40:50 68° NE
Cosmos 2084 Rocket 4.2 18:38:49 10° SW 18:42:10 52° SW 18:42:10 52° SW
CZ-4 R/B 3.4 18:45:33 10° SSW 18:48:50 27° W 18:52:09 10° NW
USA 267 4.0 18:45:12 15° SSE 18:50:29 48° SW 18:56:48 10° WNW
CZ-4C R/B 2.7 18:50:11 10° WSW 18:55:10 52° NW 18:55:39 51° NNW
Cosmos 1656 Rocket 4.2 19:03:06 10° NNW 19:07:57 55° W 19:07:57 55° W
Cosmos 1943 4.2 19:04:36 10° SW 19:09:54 41° WNW 19:10:43 38° NW
Lacrosse 5 3.4 19:12:11 10° W 19:15:40 32° WNW 19:15:40 32° WNW
NOSS 3-1 (A) 4.3 19:09:36 10° NW 19:17:12 68° WSW 19:19:54 46° S
